Flag for Germany Weather past 2 weeks in Ellwangen (Jagst), Baden-Württemberg, Germany

46 °F

Low clouds.

Feels Like: 40 °F
Forecast: 34 / 46 °F
Wind: 14 mph from Southwest

Location: Niederstetten

Current Time: Dec 2, 2015 at 3:19:33 AM

Latest Report: Dec 2, 2015 at 2:20 AM

Visibility: N/A

Pressure: 30.36 "Hg

Humidity: 93%

Dew point: 45 °F

Location of Ellwangen (Jagst)Location

Historic Weather in Ellwangen (Jagst) — Graph


Ellwangen (Jagst) temperature yesterday

Maximum temperature yesterday: 46 °F (at 12:20 AM)
Minimum temperature yesterday: 46 °F (at 12:20 AM)
Average temperature yesterday: 46 °F

Past Weeks' High & Low Weather Summary

High57 °F (Nov 18, 2:20 AM)100% (Nov 20, 5:20 PM)30.36 "Hg (Nov 20, 5:20 PM)
Low27 °F (Nov 27, 6:20 AM)58% (Nov 18, 11:20 AM)29.39 "Hg (Nov 21, 12:20 PM)
Average40 °F88%29.93 "Hg
* Reported Nov 17 1:20 AM — Dec 2 1:20 AM, Ellwangen (Jagst), Weather by CustomWeather, © 2015

Note: Actual official high and low records may vary slightly from our data, if they occured in-between our weather recording intervals... More about our weather records


Ellwangen (Jagst) weather history for previous 24 hours

Time TempWeatherWind HumidityBarometerVisibility
1:20 AM
Wed, Dec 2
46 °FLow clouds.15 mph93%30.36 "HgN/A
12:20 AM46 °FDrizzle. Fog.16 mph93%30.36 "Hg3 mi
11:20 PM
Tue, Dec 1
46 °FDrizzle. Fog.16 mph100%30.36 "Hg2 mi
10:20 PM46 °FDrizzle. Fog.14 mph100%30.36 "Hg3 mi
9:20 PM46 °FFog.13 mph100%30.36 "Hg3 mi
8:20 PM46 °FDrizzle. Fog.20 mph100%30.33 "Hg2 mi
7:20 PM46 °FDrizzle. Fog.20 mph100%30.33 "Hg2 mi
6:20 PM46 °FDrizzle. Fog.20 mph100%30.33 "Hg2 mi
5:20 PM46 °FDrizzle. Fog.20 mph100%30.30 "Hg2 mi
4:58 PM46 °FDrizzle. Fog.17 mph93%30.30 "Hg3 mi
4:20 PM46 °FDrizzle. Mostly cloudy.21 mph93%30.30 "Hg6 mi
3:20 PM46 °FDrizzle. Mostly cloudy.21 mph93%30.27 "Hg5 mi
2:58 PM46 °FDrizzle. Mostly cloudy.21 mph93%30.27 "Hg4 mi
2:20 PM46 °FDrizzle. Mostly cloudy.23 mph93%30.27 "Hg5 mi
1:20 PM46 °FDrizzle. Mostly cloudy.20 mph93%30.27 "Hg4 mi
1:03 PM46 °FDrizzle. Mostly cloudy.20 mph93%30.24 "Hg3 mi
12:20 PM46 °FDrizzle. Mostly cloudy.24 mph93%30.24 "Hg3 mi
11:20 AM46 °FDrizzle. Fog.24 mph93%30.24 "Hg2 mi
10:20 AM46 °FLight rain. Mostly cloudy.26 mph93%30.24 "Hg4 mi
9:20 AM46 °FLight rain. Fog.25 mph93%30.21 "Hg2 mi
9:00 AM46 °FLight rain. Fog.25 mph93%30.21 "Hg2 mi
8:20 AM46 °FLight rain. Mostly cloudy.26 mph93%30.18 "HgN/A
7:20 AM46 °FLight rain. Mostly cloudy.28 mph93%30.18 "Hg5 mi
6:20 AM46 °FRain. Fog.28 mph93%30.15 "Hg3 mi
5:20 AM46 °FLight rain. Mostly cloudy.30 mph87%30.12 "HgN/A
4:20 AM46 °FLight rain. Mostly cloudy.29 mph93%30.12 "Hg6 mi
3:20 AM46 °FLight rain. Mostly cloudy.33 mph87%30.09 "HgN/A
Weather by CustomWeather, © 2015

See weather overviewHow to use our weather pages